UAL1542 TNCM-KMCO

Flight info

Callsign UAL1542
Flight time 3h 14m
Altitude 34000
Route BOPAT2 JUICE B520 STT DCT ACONY Y280 CHYLE/N0468F360 Y280 OCTAL MUNGI1
Aircraft B738/M-SDE2E3FGHIRWXY/LB1

Departure

Time 2026-04-20 18:37
Airport Princess Juliana International Airport (TNCM)

Arrival

Time 2026-04-20 21:51
Airport Orlando International Airport (KMCO)
Time Latitude Longitude Altitude Speed Heading
2026-04-20 18:11 18.04321 -63.11430 20 ft 0 kts 352°
2026-04-20 18:28 18.04308 -63.11428 20 ft 2 kts 352°
2026-04-20 18:29 18.04292 -63.11426 21 ft 2 kts 352°
2026-04-20 18:29 18.04275 -63.11424 23 ft 2 kts 349°
2026-04-20 18:29 18.04260 -63.11418 22 ft 2 kts 309°
2026-04-20 18:29 18.04255 -63.11408 24 ft 1 kts 262°
2026-04-20 18:30 18.04254 -63.11414 22 ft 3 kts 260°
2026-04-20 18:30 18.04252 -63.11425 22 ft 0 kts 260°
2026-04-20 18:32 18.04252 -63.11426 22 ft 1 kts 260°
2026-04-20 18:32 18.04240 -63.11450 20 ft 7 kts 232°
2026-04-20 18:32 18.04201 -63.11494 20 ft 8 kts 229°
2026-04-20 18:32 18.04164 -63.11541 20 ft 8 kts 233°
2026-04-20 18:33 18.04131 -63.11589 21 ft 8 kts 233°
2026-04-20 18:33 18.04098 -63.11635 20 ft 8 kts 232°
2026-04-20 18:33 18.04065 -63.11700 21 ft 12 kts 253°
2026-04-20 18:33 18.04049 -63.11794 20 ft 13 kts 261°
2026-04-20 18:34 18.04032 -63.11887 20 ft 13 kts 247°
2026-04-20 18:34 18.03982 -63.11960 21 ft 12 kts 218°
2026-04-20 18:34 18.03948 -63.11919 21 ft 6 kts 79°
2026-04-20 18:34 18.03948 -63.11918 21 ft 0 kts 79°
2026-04-20 18:36 18.03954 -63.11881 23 ft 13 kts 82°
2026-04-20 18:36 18.04008 -63.11491 20 ft 97 kts 81°
2026-04-20 18:36 18.04159 -63.10523 41 ft 167 kts 79°
2026-04-20 18:37 18.04298 -63.09243 791 ft 186 kts 88°
2026-04-20 18:37 18.04024 -63.07807 1256 ft 220 kts 110°
2026-04-20 18:37 18.03212 -63.06335 1723 ft 248 kts 127°
2026-04-20 18:37 18.01873 -63.05156 2684 ft 251 kts 148°
2026-04-20 18:38 18.00192 -63.04588 3446 ft 261 kts 171°
2026-04-20 18:38 17.98358 -63.04824 4213 ft 274 kts 198°
2026-04-20 18:38 17.96741 -63.05918 5058 ft 281 kts 225°
2026-04-20 18:38 17.95666 -63.07642 5911 ft 286 kts 246°
2026-04-20 18:39 17.94993 -63.09628 6702 ft 291 kts 257°
2026-04-20 18:39 17.95056 -63.11742 7434 ft 293 kts 287°
2026-04-20 18:39 17.95713 -63.13778 8233 ft 295 kts 292°
2026-04-20 18:39 17.96437 -63.15805 9036 ft 297 kts 292°
2026-04-20 18:40 17.97163 -63.17841 9896 ft 299 kts 292°
2026-04-20 18:40 17.97881 -63.19899 10619 ft 301 kts 291°
2026-04-20 18:40 17.98580 -63.21948 11354 ft 303 kts 291°
2026-04-20 18:40 17.99281 -63.24042 12084 ft 305 kts 291°
2026-04-20 18:41 17.99981 -63.26155 12819 ft 307 kts 291°
2026-04-20 18:41 18.00679 -63.28278 13600 ft 308 kts 290°
2026-04-20 18:41 18.01376 -63.30413 14326 ft 308 kts 290°
2026-04-20 18:41 18.02071 -63.32546 14984 ft 311 kts 290°
2026-04-20 18:42 18.02779 -63.34723 15475 ft 320 kts 290°
2026-04-20 18:42 18.03522 -63.37012 15601 ft 341 kts 290°
2026-04-20 18:42 18.04305 -63.39428 15759 ft 359 kts 290°
2026-04-20 18:42 18.05131 -63.41979 15864 ft 377 kts 290°
2026-04-20 18:43 18.05994 -63.44648 15999 ft 392 kts 290°
2026-04-20 18:43 18.06874 -63.47370 16101 ft 405 kts 290°
2026-04-20 18:43 18.07788 -63.50203 16354 ft 413 kts 290°
2026-04-20 18:43 18.08715 -63.53080 16673 ft 418 kts 290°
2026-04-20 18:44 18.09649 -63.55982 17177 ft 419 kts 290°
2026-04-20 18:44 18.10584 -63.58884 17651 ft 420 kts 290°
2026-04-20 18:44 18.11522 -63.61796 18067 ft 422 kts 290°
2026-04-20 18:44 18.12469 -63.64734 18430 ft 425 kts 290°
2026-04-20 18:45 18.13347 -63.67711 18765 ft 428 kts 285°
2026-04-20 18:45 18.13928 -63.70787 19130 ft 430 kts 281°
2026-04-20 18:45 18.14423 -63.73899 19481 ft 431 kts 281°
2026-04-20 18:45 18.14899 -63.76985 19794 ft 433 kts 281°
2026-04-20 18:46 18.15389 -63.80117 20118 ft 435 kts 281°
2026-04-20 18:46 18.15895 -63.83257 20448 ft 436 kts 281°
2026-04-20 18:46 18.16411 -63.86399 20766 ft 438 kts 281°
2026-04-20 18:46 18.16939 -63.89563 21087 ft 439 kts 281°
2026-04-20 18:47 18.17468 -63.92722 21391 ft 440 kts 281°
2026-04-20 18:47 18.18001 -63.95907 21674 ft 442 kts 281°
2026-04-20 18:47 18.18535 -63.99098 21950 ft 444 kts 281°
2026-04-20 18:47 18.19053 -64.02200 22221 ft 445 kts 281°
2026-04-20 18:48 18.19588 -64.05410 22492 ft 446 kts 281°
2026-04-20 18:48 18.20124 -64.08631 22753 ft 448 kts 281°
2026-04-20 18:48 18.20661 -64.11861 23012 ft 449 kts 281°
2026-04-20 18:48 18.21203 -64.15101 23257 ft 450 kts 281°
2026-04-20 18:49 18.21748 -64.18350 23489 ft 452 kts 281°
2026-04-20 18:49 18.22294 -64.21609 23711 ft 453 kts 281°
2026-04-20 18:49 18.22842 -64.24883 23910 ft 454 kts 281°
2026-04-20 18:49 18.23381 -64.28106 24101 ft 455 kts 281°
2026-04-20 18:50 18.23936 -64.31431 24297 ft 456 kts 281°
2026-04-20 18:50 18.24477 -64.34677 24484 ft 457 kts 281°
2026-04-20 18:50 18.25027 -64.37982 24661 ft 458 kts 281°
2026-04-20 18:50 18.25577 -64.41291 24826 ft 460 kts 281°
2026-04-20 18:51 18.26129 -64.44616 25013 ft 461 kts 281°
2026-04-20 18:51 18.26680 -64.47938 25209 ft 461 kts 281°
2026-04-20 18:51 18.27233 -64.51273 25400 ft 462 kts 281°
2026-04-20 18:51 18.27785 -64.54608 25569 ft 463 kts 281°
2026-04-20 18:52 18.28338 -64.57958 25761 ft 464 kts 281°
2026-04-20 18:52 18.28891 -64.61301 25931 ft 465 kts 281°
2026-04-20 18:52 18.29446 -64.64666 26104 ft 466 kts 281°
2026-04-20 18:52 18.29991 -64.67984 26275 ft 467 kts 281°
2026-04-20 18:53 18.30544 -64.71363 26421 ft 468 kts 281°
2026-04-20 18:53 18.31095 -64.74741 26607 ft 468 kts 281°
2026-04-20 18:53 18.31644 -64.78115 26855 ft 467 kts 281°
2026-04-20 18:53 18.32192 -64.81485 27133 ft 465 kts 281°
2026-04-20 18:54 18.32737 -64.84837 27432 ft 464 kts 281°
2026-04-20 18:54 18.33280 -64.88180 27715 ft 463 kts 282°
2026-04-20 18:54 18.33822 -64.91520 27991 ft 462 kts 282°
2026-04-20 18:54 18.34363 -64.94852 28263 ft 462 kts 281°
2026-04-20 18:55 18.34902 -64.98180 28564 ft 461 kts 282°
2026-04-20 18:55 18.35449 -65.01397 28892 ft 458 kts 284°
2026-04-20 18:55 18.36332 -65.04604 29220 ft 455 kts 293°
2026-04-20 18:55 18.37548 -65.07659 29567 ft 453 kts 294°
2026-04-20 18:56 18.38790 -65.10700 29878 ft 452 kts 295°
2026-04-20 18:56 18.40029 -65.13736 30182 ft 451 kts 294°
2026-04-20 18:56 18.41257 -65.16766 30505 ft 449 kts 294°
2026-04-20 18:56 18.42471 -65.19785 30838 ft 447 kts 294°
2026-04-20 18:57 18.43657 -65.22755 31138 ft 445 kts 294°
2026-04-20 18:57 18.44856 -65.25768 31412 ft 445 kts 294°
2026-04-20 18:57 18.46047 -65.28770 31692 ft 444 kts 294°
2026-04-20 18:57 18.47236 -65.31770 32034 ft 441 kts 294°
2026-04-20 18:58 18.48411 -65.34739 32399 ft 439 kts 294°
2026-04-20 18:58 18.49586 -65.37709 32715 ft 438 kts 294°
2026-04-20 18:58 18.50759 -65.40673 33001 ft 437 kts 294°
2026-04-20 18:58 18.51915 -65.43594 33285 ft 436 kts 294°
2026-04-20 18:59 18.53083 -65.46548 33591 ft 435 kts 294°
2026-04-20 18:59 18.54243 -65.49485 33908 ft 433 kts 294°
2026-04-20 18:59 18.55405 -65.52426 34052 ft 436 kts 294°
2026-04-20 18:59 18.56573 -65.55384 34054 ft 438 kts 294°
2026-04-20 19:00 18.58911 -65.61310 34048 ft 435 kts 294°
2026-04-20 19:00 18.61208 -65.67142 34048 ft 428 kts 293°
2026-04-20 19:01 18.63483 -65.72922 34051 ft 425 kts 293°
2026-04-20 19:01 18.65730 -65.78636 34047 ft 424 kts 293°
2026-04-20 19:02 18.67988 -65.84383 34050 ft 424 kts 293°
2026-04-20 19:02 18.70251 -65.90150 34047 ft 426 kts 293°
2026-04-20 19:03 18.72519 -65.95937 34051 ft 428 kts 293°
2026-04-20 19:03 18.74375 -66.00676 34036 ft 429 kts 293°
2026-04-20 19:04 18.77029 -66.07461 34039 ft 430 kts 293°
2026-04-20 19:04 18.78941 -66.12355 34037 ft 430 kts 293°
2026-04-20 19:05 18.81210 -66.18167 34037 ft 431 kts 293°
2026-04-20 19:05 18.83489 -66.24011 34037 ft 430 kts 293°
2026-04-20 19:06 18.85767 -66.29860 34032 ft 429 kts 293°
2026-04-20 19:06 18.88036 -66.35692 34038 ft 428 kts 293°
2026-04-20 19:07 18.90284 -66.41475 34032 ft 428 kts 292°
2026-04-20 19:07 18.92692 -66.47207 34026 ft 427 kts 300°
2026-04-20 19:08 18.98148 -66.54613 34029 ft 427 kts 309°
2026-04-20 19:09 19.01991 -66.59371 34020 ft 426 kts 309°
2026-04-20 19:09 19.05826 -66.64159 34034 ft 426 kts 309°
2026-04-20 19:10 19.09646 -66.68953 34031 ft 426 kts 308°
2026-04-20 19:10 19.13463 -66.73753 34035 ft 426 kts 308°
2026-04-20 19:11 19.17260 -66.78532 34034 ft 427 kts 308°
2026-04-20 19:11 19.21087 -66.83351 34034 ft 427 kts 308°
2026-04-20 19:12 19.24911 -66.88171 34035 ft 428 kts 308°
2026-04-20 19:12 19.28720 -66.92975 34039 ft 428 kts 308°
2026-04-20 19:13 19.32552 -66.97813 34027 ft 428 kts 308°
2026-04-20 19:13 19.36318 -67.02570 34035 ft 429 kts 308°
2026-04-20 19:14 19.40146 -67.07410 34035 ft 429 kts 308°
2026-04-20 19:14 19.43978 -67.12258 34039 ft 429 kts 308°
2026-04-20 19:15 19.47804 -67.17104 34033 ft 429 kts 308°
2026-04-20 19:15 19.51631 -67.21955 34034 ft 428 kts 308°
2026-04-20 19:16 19.55435 -67.26779 34030 ft 428 kts 308°
2026-04-20 19:16 19.59261 -67.31636 34035 ft 428 kts 308°
2026-04-20 19:17 19.63075 -67.36482 34036 ft 428 kts 308°
2026-04-20 19:17 19.66891 -67.41335 34047 ft 428 kts 308°
2026-04-20 19:18 19.70705 -67.46188 34038 ft 427 kts 308°
2026-04-20 19:18 19.74510 -67.51035 34038 ft 427 kts 308°
2026-04-20 19:19 19.78312 -67.55881 34035 ft 427 kts 308°
2026-04-20 19:19 19.82090 -67.60700 34040 ft 427 kts 308°
2026-04-20 19:20 19.85887 -67.65548 34038 ft 427 kts 308°
2026-04-20 19:20 19.89679 -67.70394 34036 ft 427 kts 308°
2026-04-20 19:21 19.93479 -67.75254 34036 ft 427 kts 308°
2026-04-20 19:21 19.97279 -67.80118 34041 ft 427 kts 308°
2026-04-20 19:22 20.01071 -67.84975 34039 ft 427 kts 308°
2026-04-20 19:22 20.04871 -67.89846 34042 ft 427 kts 308°
2026-04-20 19:23 20.08654 -67.94701 34038 ft 428 kts 308°
2026-04-20 19:23 20.12454 -67.99581 34040 ft 428 kts 308°
2026-04-20 19:24 20.16190 -68.04383 34041 ft 428 kts 308°
2026-04-20 19:24 20.19992 -68.09274 34041 ft 428 kts 308°
2026-04-20 19:25 20.23764 -68.14130 34041 ft 428 kts 308°
2026-04-20 19:25 20.27568 -68.19032 34044 ft 428 kts 308°
2026-04-20 19:26 20.31358 -68.23921 34038 ft 428 kts 308°
2026-04-20 19:26 20.35146 -68.28810 34038 ft 428 kts 308°
2026-04-20 19:27 20.38907 -68.33670 34053 ft 428 kts 308°
2026-04-20 19:27 20.42695 -68.38566 34042 ft 428 kts 308°
2026-04-20 19:28 20.46131 -68.43726 34047 ft 426 kts 301°
2026-04-20 19:28 20.49243 -68.49121 34041 ft 426 kts 300°
2026-04-20 19:29 20.52355 -68.54523 34036 ft 426 kts 301°
2026-04-20 19:29 20.55488 -68.59899 34043 ft 427 kts 301°
2026-04-20 19:30 20.58633 -68.65270 34043 ft 427 kts 301°
2026-04-20 19:30 20.61779 -68.70643 34044 ft 427 kts 301°
2026-04-20 19:31 20.64903 -68.75984 34042 ft 427 kts 301°
2026-04-20 19:31 20.68046 -68.81364 34037 ft 427 kts 301°
2026-04-20 19:32 20.71191 -68.86752 34034 ft 427 kts 301°
2026-04-20 19:32 20.74330 -68.92135 34038 ft 427 kts 301°
2026-04-20 19:33 20.77476 -68.97536 34038 ft 427 kts 301°
2026-04-20 19:33 20.80560 -69.02835 34050 ft 426 kts 301°
2026-04-20 19:34 20.83671 -69.08188 34037 ft 426 kts 301°
2026-04-20 19:34 20.86797 -69.13568 34038 ft 426 kts 301°
2026-04-20 19:35 20.89921 -69.18944 34038 ft 425 kts 301°
2026-04-20 19:35 20.93052 -69.24328 34038 ft 425 kts 301°
2026-04-20 19:36 20.96174 -69.29701 34038 ft 425 kts 301°
2026-04-20 19:36 20.99292 -69.35076 34038 ft 425 kts 301°
2026-04-20 19:37 21.02405 -69.40446 34036 ft 425 kts 301°
2026-04-20 19:37 21.05501 -69.45795 34038 ft 425 kts 301°
2026-04-20 19:38 21.08617 -69.51182 34036 ft 425 kts 301°
2026-04-20 19:38 21.11728 -69.56565 34032 ft 425 kts 301°
2026-04-20 19:39 21.14842 -69.61958 34033 ft 425 kts 301°
2026-04-20 19:39 21.17934 -69.67320 34033 ft 425 kts 301°
2026-04-20 19:40 21.21045 -69.72721 34037 ft 426 kts 301°
2026-04-20 19:40 21.24159 -69.78129 34035 ft 426 kts 301°
2026-04-20 19:41 21.27271 -69.83539 34031 ft 426 kts 301°
2026-04-20 19:41 21.30382 -69.88952 34027 ft 426 kts 301°
2026-04-20 19:42 21.33469 -69.94330 34034 ft 426 kts 301°
2026-04-20 19:42 21.36571 -69.99741 34033 ft 426 kts 301°
2026-04-20 19:43 21.39627 -70.05076 34033 ft 426 kts 301°
2026-04-20 19:43 21.42726 -70.10492 34030 ft 426 kts 301°
2026-04-20 19:44 21.45824 -70.15911 34030 ft 426 kts 301°
2026-04-20 19:44 21.48903 -70.21303 34028 ft 426 kts 302°
2026-04-20 19:45 21.51995 -70.26724 34030 ft 426 kts 301°
2026-04-20 19:45 21.55089 -70.32152 34030 ft 425 kts 301°
2026-04-20 19:46 21.58184 -70.37586 34035 ft 425 kts 301°
2026-04-20 19:46 21.61268 -70.43009 34036 ft 425 kts 301°
2026-04-20 19:47 21.64332 -70.48401 34030 ft 425 kts 301°
2026-04-20 19:47 21.67411 -70.53824 34039 ft 424 kts 301°
2026-04-20 19:48 21.70477 -70.59231 34036 ft 423 kts 302°
2026-04-20 19:48 21.73538 -70.64634 34037 ft 422 kts 302°
2026-04-20 19:49 21.76572 -70.69995 34040 ft 422 kts 302°
2026-04-20 19:49 21.79623 -70.75391 34040 ft 421 kts 302°
2026-04-20 19:50 21.82668 -70.80780 34037 ft 421 kts 302°
2026-04-20 19:50 21.85712 -70.86175 34040 ft 421 kts 301°
2026-04-20 19:51 21.88755 -70.91572 34044 ft 420 kts 302°
2026-04-20 19:51 21.91776 -70.96938 34042 ft 419 kts 302°
2026-04-20 19:52 21.94747 -71.02218 34034 ft 418 kts 302°
2026-04-20 19:52 21.97250 -71.06671 34038 ft 418 kts 302°
2026-04-20 19:53 22.00739 -71.12884 34046 ft 416 kts 302°
2026-04-20 19:53 22.03222 -71.17311 34048 ft 415 kts 302°
2026-04-20 19:54 22.06205 -71.22632 34040 ft 414 kts 302°
2026-04-20 19:54 22.09181 -71.27949 34036 ft 413 kts 302°
2026-04-20 19:55 22.12152 -71.33259 34034 ft 413 kts 302°
2026-04-20 19:55 22.15117 -71.38566 34044 ft 412 kts 302°
2026-04-20 19:56 22.18077 -71.43867 34038 ft 412 kts 302°
2026-04-20 19:56 22.21019 -71.49143 34045 ft 413 kts 302°
2026-04-20 19:57 22.23980 -71.54459 34037 ft 413 kts 302°
2026-04-20 19:57 22.26940 -71.59778 34034 ft 412 kts 302°
2026-04-20 19:58 22.29892 -71.65087 34042 ft 412 kts 302°
2026-04-20 19:58 22.32830 -71.70376 34035 ft 412 kts 302°
2026-04-20 19:59 22.35774 -71.75681 34047 ft 412 kts 302°
2026-04-20 19:59 22.38713 -71.80984 34059 ft 411 kts 301°
2026-04-20 20:00 22.41650 -71.86287 34039 ft 410 kts 301°
2026-04-20 20:00 22.44579 -71.91573 34043 ft 409 kts 301°
2026-04-20 20:01 22.47481 -71.96832 34045 ft 409 kts 301°
2026-04-20 20:01 22.50350 -72.02030 34039 ft 409 kts 301°
2026-04-20 20:02 22.53268 -72.07321 34037 ft 409 kts 301°
2026-04-20 20:02 22.56178 -72.12603 34036 ft 409 kts 301°
2026-04-20 20:03 22.59071 -72.17858 34051 ft 409 kts 301°
2026-04-20 20:03 22.61979 -72.23147 34055 ft 409 kts 301°
2026-04-20 20:04 22.64888 -72.28442 34035 ft 410 kts 300°
2026-04-20 20:04 22.67803 -72.33754 34051 ft 410 kts 300°
2026-04-20 20:05 22.70707 -72.39051 34046 ft 411 kts 300°
2026-04-20 20:05 22.73628 -72.44387 34055 ft 412 kts 300°
2026-04-20 20:06 22.76556 -72.49740 34058 ft 413 kts 300°
2026-04-20 20:06 22.79478 -72.55086 34046 ft 412 kts 300°
2026-04-20 20:07 22.82404 -72.60446 34046 ft 412 kts 299°
2026-04-20 20:07 22.85326 -72.65804 34045 ft 413 kts 299°
2026-04-20 20:08 22.88247 -72.71167 34045 ft 413 kts 299°
2026-04-20 20:08 22.91175 -72.76548 34045 ft 414 kts 299°
2026-04-20 20:09 22.94086 -72.81903 34049 ft 415 kts 299°
2026-04-20 20:09 22.97018 -72.87302 34050 ft 415 kts 299°
2026-04-20 20:10 22.99946 -72.92700 34049 ft 415 kts 299°
2026-04-20 20:10 23.02872 -72.98102 34049 ft 415 kts 299°
2026-04-20 20:11 23.05752 -73.03426 34050 ft 415 kts 299°
2026-04-20 20:11 23.08660 -73.08807 34049 ft 415 kts 299°
2026-04-20 20:12 23.11585 -73.14225 34049 ft 415 kts 299°
2026-04-20 20:12 23.14507 -73.19645 34049 ft 415 kts 298°
2026-04-20 20:13 23.18879 -73.27763 34056 ft 414 kts 298°
2026-04-20 20:13 23.21786 -73.33169 34047 ft 414 kts 298°
2026-04-20 20:14 23.24675 -73.38547 34047 ft 413 kts 298°
2026-04-20 20:14 23.27576 -73.43953 34048 ft 413 kts 298°
2026-04-20 20:15 23.30473 -73.49358 34049 ft 413 kts 298°
2026-04-20 20:15 23.33363 -73.54755 34050 ft 413 kts 298°
2026-04-20 20:16 23.36250 -73.60152 34050 ft 413 kts 298°
2026-04-20 20:16 23.39138 -73.65556 34051 ft 412 kts 298°
2026-04-20 20:17 23.42015 -73.70948 34052 ft 412 kts 298°
2026-04-20 20:17 23.44876 -73.76314 34050 ft 412 kts 298°
2026-04-20 20:18 23.47753 -73.81716 34053 ft 412 kts 298°
2026-04-20 20:18 23.50625 -73.87115 34058 ft 412 kts 298°
2026-04-20 20:19 23.53501 -73.92528 34052 ft 412 kts 298°
2026-04-20 20:19 23.56372 -73.97936 34058 ft 412 kts 298°
2026-04-20 20:20 23.59177 -74.03222 34056 ft 411 kts 298°
2026-04-20 20:20 23.62041 -74.08621 34054 ft 410 kts 298°
2026-04-20 20:21 23.64895 -74.14010 34054 ft 410 kts 298°
2026-04-20 20:21 23.67733 -74.19373 34055 ft 410 kts 298°
2026-04-20 20:22 23.70579 -74.24759 34057 ft 410 kts 298°
2026-04-20 20:22 23.73421 -74.30145 34057 ft 409 kts 298°
2026-04-20 20:23 23.76265 -74.35539 34061 ft 409 kts 298°
2026-04-20 20:23 23.79105 -74.40932 34059 ft 409 kts 298°
2026-04-20 20:24 23.81923 -74.46287 34057 ft 409 kts 298°
2026-04-20 20:24 23.84753 -74.51672 34057 ft 409 kts 298°
2026-04-20 20:25 23.87580 -74.57057 34060 ft 408 kts 298°
2026-04-20 20:25 23.90407 -74.62448 34060 ft 408 kts 298°
2026-04-20 20:26 23.93232 -74.67842 34072 ft 408 kts 298°
2026-04-20 20:26 23.96033 -74.73195 34070 ft 408 kts 298°
2026-04-20 20:27 23.98851 -74.78589 34068 ft 408 kts 298°
2026-04-20 20:27 24.01669 -74.83985 34067 ft 408 kts 298°
2026-04-20 20:28 24.04484 -74.89384 34064 ft 408 kts 298°
2026-04-20 20:28 24.07298 -74.94786 34062 ft 409 kts 298°
2026-04-20 20:29 24.10079 -75.00131 34063 ft 409 kts 298°
2026-04-20 20:29 24.12869 -75.05498 34063 ft 409 kts 298°
2026-04-20 20:30 24.15681 -75.10915 34065 ft 408 kts 298°
2026-04-20 20:30 24.18486 -75.16324 34065 ft 408 kts 298°
2026-04-20 20:31 24.21290 -75.21736 34066 ft 408 kts 298°
2026-04-20 20:31 24.24094 -75.27156 34066 ft 408 kts 298°
2026-04-20 20:32 24.26877 -75.32541 34063 ft 408 kts 298°
2026-04-20 20:32 24.29677 -75.37964 34082 ft 408 kts 298°
2026-04-20 20:33 24.32472 -75.43383 34075 ft 408 kts 298°
2026-04-20 20:33 24.35262 -75.48800 34067 ft 408 kts 298°
2026-04-20 20:34 24.38051 -75.54222 34063 ft 407 kts 298°
2026-04-20 20:34 24.40814 -75.59597 34066 ft 407 kts 298°
2026-04-20 20:35 24.43592 -75.65008 34065 ft 407 kts 298°
2026-04-20 20:35 24.46376 -75.70437 34068 ft 407 kts 298°
2026-04-20 20:36 24.49149 -75.75851 34068 ft 407 kts 298°
2026-04-20 20:36 24.51901 -75.81231 34073 ft 406 kts 297°
2026-04-20 20:37 24.54671 -75.86651 34067 ft 406 kts 297°
2026-04-20 20:37 24.57436 -75.92069 34069 ft 406 kts 297°
2026-04-20 20:38 24.60196 -75.97482 34070 ft 406 kts 297°
2026-04-20 20:38 24.62446 -76.01899 34071 ft 406 kts 297°
2026-04-20 20:39 24.65653 -76.08203 34074 ft 406 kts 297°
2026-04-20 20:39 24.67945 -76.12713 34074 ft 406 kts 297°
2026-04-20 20:40 24.70698 -76.18136 34081 ft 405 kts 297°
2026-04-20 20:40 24.73441 -76.23546 34075 ft 405 kts 297°
2026-04-20 20:41 24.76181 -76.28955 34076 ft 404 kts 297°
2026-04-20 20:41 24.78915 -76.34360 34076 ft 404 kts 297°
2026-04-20 20:42 24.81643 -76.39758 34077 ft 403 kts 297°
2026-04-20 20:42 24.84349 -76.45119 34076 ft 403 kts 297°
2026-04-20 20:43 24.87071 -76.50518 34072 ft 403 kts 297°
2026-04-20 20:43 24.89794 -76.55926 34076 ft 403 kts 297°
2026-04-20 20:44 24.92515 -76.61335 34079 ft 403 kts 297°
2026-04-20 20:44 24.95232 -76.66744 34079 ft 404 kts 297°
2026-04-20 20:45 24.97934 -76.72129 34079 ft 404 kts 297°
2026-04-20 20:45 25.00648 -76.77542 34080 ft 404 kts 297°
2026-04-20 20:46 25.03363 -76.82964 34079 ft 404 kts 297°
2026-04-20 20:46 25.06079 -76.88395 34100 ft 404 kts 297°
2026-04-20 20:47 25.08790 -76.93823 34084 ft 403 kts 297°
2026-04-20 20:47 25.11492 -76.99239 34081 ft 403 kts 297°
2026-04-20 20:48 25.14146 -77.04566 34082 ft 402 kts 297°
2026-04-20 20:48 25.16838 -77.09975 34082 ft 402 kts 297°
2026-04-20 20:49 25.19512 -77.15354 34086 ft 402 kts 297°
2026-04-20 20:49 25.22198 -77.20764 34090 ft 402 kts 297°
2026-04-20 20:50 25.24888 -77.26188 34093 ft 402 kts 296°
2026-04-20 20:50 25.27571 -77.31603 34094 ft 402 kts 296°
2026-04-20 20:51 25.30024 -77.37141 34090 ft 400 kts 289°
2026-04-20 20:51 25.31881 -77.42944 34090 ft 400 kts 289°
2026-04-20 20:52 25.33741 -77.48714 34089 ft 400 kts 289°
2026-04-20 20:52 25.35625 -77.54522 34091 ft 400 kts 289°
2026-04-20 20:53 25.37497 -77.60290 34093 ft 401 kts 289°
2026-04-20 20:53 25.39378 -77.66095 34092 ft 400 kts 289°
2026-04-20 20:54 25.41254 -77.71892 34093 ft 400 kts 289°
2026-04-20 20:54 25.43111 -77.77696 34093 ft 400 kts 287°
2026-04-20 20:55 25.44640 -77.83608 34110 ft 400 kts 285°
2026-04-20 20:55 25.46099 -77.89532 34086 ft 398 kts 285°
2026-04-20 20:56 25.47560 -77.95440 34099 ft 397 kts 285°
2026-04-20 20:56 25.49004 -78.01243 34097 ft 397 kts 285°
2026-04-20 20:57 25.50474 -78.07137 34086 ft 397 kts 285°
2026-04-20 20:57 25.51933 -78.12997 34089 ft 397 kts 285°
2026-04-20 20:58 25.53400 -78.18897 34098 ft 397 kts 285°
2026-04-20 20:58 25.54855 -78.24760 34099 ft 397 kts 285°
2026-04-20 20:59 25.56314 -78.30653 34097 ft 397 kts 285°
2026-04-20 20:59 25.57773 -78.36555 34096 ft 397 kts 285°
2026-04-20 21:00 25.59231 -78.42465 34095 ft 397 kts 285°
2026-04-20 21:00 25.60686 -78.48370 34096 ft 397 kts 285°
2026-04-20 21:01 25.62127 -78.54233 34086 ft 397 kts 285°
2026-04-20 21:01 25.63574 -78.60132 34086 ft 397 kts 284°
2026-04-20 21:02 25.65023 -78.66048 34086 ft 397 kts 284°
2026-04-20 21:02 25.66471 -78.71974 34093 ft 397 kts 284°
2026-04-20 21:03 25.67914 -78.77887 34092 ft 397 kts 284°
2026-04-20 21:03 25.69344 -78.83761 34093 ft 397 kts 284°
2026-04-20 21:04 25.70782 -78.89674 34092 ft 397 kts 284°
2026-04-20 21:04 25.72218 -78.95596 34097 ft 397 kts 284°
2026-04-20 21:05 25.73631 -79.01431 34100 ft 397 kts 284°
2026-04-20 21:05 25.75062 -79.07354 34102 ft 397 kts 284°
2026-04-20 21:06 25.76481 -79.13236 34099 ft 397 kts 284°
2026-04-20 21:06 25.77903 -79.19144 34101 ft 397 kts 284°
2026-04-20 21:07 25.79326 -79.25064 34102 ft 397 kts 284°
2026-04-20 21:07 25.80743 -79.30972 34103 ft 397 kts 284°
2026-04-20 21:08 25.82160 -79.36895 34103 ft 397 kts 284°
2026-04-20 21:08 25.83574 -79.42813 34101 ft 397 kts 284°
2026-04-20 21:09 25.84989 -79.48747 34104 ft 397 kts 284°
2026-04-20 21:09 25.86391 -79.54640 34104 ft 397 kts 284°
2026-04-20 21:10 25.87801 -79.60577 34109 ft 397 kts 284°
2026-04-20 21:10 25.89209 -79.66515 34125 ft 397 kts 284°
2026-04-20 21:11 25.90614 -79.72456 34114 ft 397 kts 284°
2026-04-20 21:11 25.92107 -79.78361 34100 ft 397 kts 289°
2026-04-20 21:12 25.94604 -79.83809 34122 ft 400 kts 298°
2026-04-20 21:12 25.97583 -79.89040 34106 ft 401 kts 298°
2026-04-20 21:13 26.00547 -79.94282 34107 ft 401 kts 298°
2026-04-20 21:13 26.03501 -79.99544 34089 ft 401 kts 298°
2026-04-20 21:14 26.06408 -80.04736 34097 ft 401 kts 298°
2026-04-20 21:14 26.09355 -80.10007 34105 ft 401 kts 298°
2026-04-20 21:15 26.12301 -80.15281 34104 ft 401 kts 298°
2026-04-20 21:15 26.15239 -80.20567 34109 ft 400 kts 297°
2026-04-20 21:16 26.17919 -80.25987 34116 ft 400 kts 295°
2026-04-20 21:16 26.20535 -80.31459 34119 ft 400 kts 295°
2026-04-20 21:17 26.23143 -80.36898 34095 ft 401 kts 295°
2026-04-20 21:17 26.25777 -80.42368 34118 ft 400 kts 295°
2026-04-20 21:18 26.28405 -80.47820 34119 ft 398 kts 295°
2026-04-20 21:18 26.31022 -80.53254 34113 ft 397 kts 295°
2026-04-20 21:19 26.33631 -80.58680 34117 ft 397 kts 295°
2026-04-20 21:20 26.37525 -80.66789 34118 ft 396 kts 295°
2026-04-20 21:20 26.39701 -80.71327 34118 ft 396 kts 295°
2026-04-20 21:21 26.42722 -80.77636 34121 ft 396 kts 295°
2026-04-20 21:21 26.45321 -80.83072 34125 ft 397 kts 295°
2026-04-20 21:22 26.47920 -80.88512 34120 ft 397 kts 295°
2026-04-20 21:22 26.50502 -80.93926 34120 ft 397 kts 295°
2026-04-20 21:23 26.53095 -80.99368 34123 ft 397 kts 295°
2026-04-20 21:23 26.55650 -81.04737 34123 ft 397 kts 295°
2026-04-20 21:24 26.58241 -81.10189 34122 ft 397 kts 295°
2026-04-20 21:24 26.60814 -81.15609 34130 ft 397 kts 295°
2026-04-20 21:25 26.63592 -81.20951 34120 ft 402 kts 304°
2026-04-20 21:25 26.65582 -81.23175 34125 ft 410 kts 315°
2026-04-20 21:25 26.67880 -81.25079 34133 ft 412 kts 317°
2026-04-20 21:26 26.72582 -81.28769 34129 ft 412 kts 318°
2026-04-20 21:26 26.76481 -81.31836 34124 ft 412 kts 317°
2026-04-20 21:27 26.81148 -81.35557 34143 ft 411 kts 317°
2026-04-20 21:27 26.85793 -81.39291 34147 ft 410 kts 317°
2026-04-20 21:28 26.90402 -81.43007 34150 ft 410 kts 317°
2026-04-20 21:28 26.95031 -81.46742 33882 ft 413 kts 317°
2026-04-20 21:28 26.97398 -81.48660 32868 ft 420 kts 317°
2026-04-20 21:29 26.99756 -81.50562 32483 ft 410 kts 317°
2026-04-20 21:29 27.02065 -81.52423 31679 ft 412 kts 317°
2026-04-20 21:29 27.04390 -81.54303 30918 ft 414 kts 317°
2026-04-20 21:29 27.06704 -81.56178 30145 ft 416 kts 318°
2026-04-20 21:30 27.09066 -81.58092 29203 ft 419 kts 318°
2026-04-20 21:30 27.11437 -81.60013 28480 ft 418 kts 318°
2026-04-20 21:30 27.13786 -81.61914 27846 ft 413 kts 319°
2026-04-20 21:30 27.16103 -81.63790 27271 ft 410 kts 319°
2026-04-20 21:31 27.18414 -81.65664 26679 ft 406 kts 319°
2026-04-20 21:31 27.20693 -81.67515 26094 ft 403 kts 319°
2026-04-20 21:31 27.22958 -81.69354 25541 ft 400 kts 319°
2026-04-20 21:31 27.25212 -81.71185 24927 ft 399 kts 319°
2026-04-20 21:32 27.27504 -81.72887 24330 ft 403 kts 328°
2026-04-20 21:32 27.30164 -81.73968 23745 ft 409 kts 338°
2026-04-20 21:32 27.32898 -81.74844 23040 ft 408 kts 339°
2026-04-20 21:32 27.35617 -81.75712 22444 ft 404 kts 339°
2026-04-20 21:33 27.38315 -81.76586 21852 ft 401 kts 339°
2026-04-20 21:33 27.40982 -81.77464 21278 ft 398 kts 338°
2026-04-20 21:33 27.43630 -81.78347 20706 ft 394 kts 339°
2026-04-20 21:33 27.46252 -81.79227 20145 ft 392 kts 339°
2026-04-20 21:34 27.48828 -81.80094 19581 ft 390 kts 339°
2026-04-20 21:34 27.51429 -81.80972 19005 ft 388 kts 339°
2026-04-20 21:34 27.54014 -81.81844 18427 ft 387 kts 339°
2026-04-20 21:34 27.56590 -81.82712 17798 ft 385 kts 339°
2026-04-20 21:35 27.59149 -81.83575 17217 ft 382 kts 340°
2026-04-20 21:35 27.61692 -81.84433 16643 ft 379 kts 340°
2026-04-20 21:35 27.64235 -81.85189 16084 ft 379 kts 349°
2026-04-20 21:35 27.66876 -81.85124 15543 ft 382 kts
2026-04-20 21:36 27.69421 -81.84243 15029 ft 382 kts 17°
2026-04-20 21:36 27.71903 -81.83181 14467 ft 380 kts 18°
2026-04-20 21:36 27.74365 -81.82101 13911 ft 377 kts 19°
2026-04-20 21:36 27.76805 -81.81036 13312 ft 374 kts 18°
2026-04-20 21:37 27.79224 -81.79991 12748 ft 370 kts 17°
2026-04-20 21:37 27.81592 -81.78986 12202 ft 367 kts 17°
2026-04-20 21:37 27.83970 -81.77986 11669 ft 363 kts 18°
2026-04-20 21:37 27.86331 -81.76990 11138 ft 360 kts 17°
2026-04-20 21:38 27.88641 -81.76018 10933 ft 348 kts 17°
2026-04-20 21:38 27.90870 -81.75075 10758 ft 336 kts 19°
2026-04-20 21:38 27.93069 -81.74367 10574 ft 323 kts
2026-04-20 21:38 27.95248 -81.73969 10456 ft 311 kts
2026-04-20 21:39 27.97353 -81.73571 10318 ft 301 kts
2026-04-20 21:39 27.99388 -81.73163 10189 ft 292 kts
2026-04-20 21:39 28.01315 -81.72582 10053 ft 287 kts 25°
2026-04-20 21:39 28.02854 -81.71197 9960 ft 283 kts 46°
2026-04-20 21:40 28.03858 -81.69289 9682 ft 285 kts 68°
2026-04-20 21:40 28.04341 -81.67115 9413 ft 284 kts 75°
2026-04-20 21:40 28.04692 -81.64920 9122 ft 284 kts 76°
2026-04-20 21:40 28.05021 -81.62749 8838 ft 282 kts 78°
2026-04-20 21:41 28.05353 -81.60565 8555 ft 281 kts 77°
2026-04-20 21:41 28.05691 -81.58391 8274 ft 280 kts 77°
2026-04-20 21:41 28.06034 -81.56231 8001 ft 278 kts 77°
2026-04-20 21:41 28.06376 -81.54085 7725 ft 276 kts 78°
2026-04-20 21:42 28.06718 -81.51954 7516 ft 272 kts 78°
2026-04-20 21:42 28.07054 -81.49877 7388 ft 265 kts 77°
2026-04-20 21:42 28.07379 -81.47855 7274 ft 257 kts 76°
2026-04-20 21:42 28.07695 -81.45891 7166 ft 250 kts 77°
2026-04-20 21:43 28.08005 -81.43977 7064 ft 244 kts 76°
2026-04-20 21:43 28.08321 -81.42100 6884 ft 242 kts 70°
2026-04-20 21:43 28.09168 -81.40508 6604 ft 234 kts 40°
2026-04-20 21:43 28.10349 -81.39242 6312 ft 235 kts 42°
2026-04-20 21:44 28.11526 -81.37957 6032 ft 235 kts 41°
2026-04-20 21:44 28.12693 -81.36682 5751 ft 237 kts 42°
2026-04-20 21:44 28.13879 -81.35388 5550 ft 233 kts 42°
2026-04-20 21:44 28.15009 -81.34152 5458 ft 219 kts 41°
2026-04-20 21:45 28.16076 -81.32983 5308 ft 207 kts 42°
2026-04-20 21:45 28.17204 -81.32123 5180 ft 189 kts 14°
2026-04-20 21:45 28.18476 -81.31940 5067 ft 181 kts
2026-04-20 21:45 28.19755 -81.31948 4609 ft 185 kts
2026-04-20 21:46 28.21030 -81.31971 4315 ft 179 kts
2026-04-20 21:46 28.22311 -81.31987 3869 ft 183 kts
2026-04-20 21:46 28.23584 -81.32003 3585 ft 182 kts
2026-04-20 21:46 28.24826 -81.32018 3349 ft 181 kts
2026-04-20 21:47 28.26072 -81.32032 3094 ft 178 kts
2026-04-20 21:47 28.27296 -81.32045 2867 ft 175 kts
2026-04-20 21:47 28.28508 -81.32057 2633 ft 173 kts
2026-04-20 21:47 28.29707 -81.32069 2407 ft 171 kts
2026-04-20 21:48 28.30879 -81.32082 2193 ft 166 kts
2026-04-20 21:48 28.32012 -81.32097 1970 ft 158 kts
2026-04-20 21:48 28.33091 -81.32110 1746 ft 152 kts
2026-04-20 21:48 28.34133 -81.32122 1566 ft 147 kts
2026-04-20 21:49 28.35148 -81.32128 1314 ft 147 kts
2026-04-20 21:49 28.36148 -81.32141 1094 ft 141 kts
2026-04-20 21:49 28.37148 -81.32142 914 ft 147 kts
2026-04-20 21:49 28.38155 -81.32159 751 ft 141 kts
2026-04-20 21:50 28.39128 -81.32171 574 ft 141 kts
2026-04-20 21:50 28.40089 -81.32179 375 ft 133 kts
2026-04-20 21:50 28.41019 -81.32179 223 ft 138 kts
2026-04-20 21:50 28.41948 -81.32195 104 ft 129 kts
2026-04-20 21:51 28.42720 -81.32205 105 ft 79 kts 359°
2026-04-20 21:51 28.42929 -81.32203 103 ft 18 kts 12°
2026-04-20 21:51 28.43032 -81.32138 100 ft 17 kts 49°
2026-04-20 21:51 28.43062 -81.32014 101 ft 16 kts 88°
2026-04-20 21:52 28.43033 -81.31895 102 ft 16 kts 122°
2026-04-20 21:52 28.42976 -81.31791 102 ft 15 kts 122°
2026-04-20 21:52 28.42907 -81.31707 101 ft 15 kts 154°
2026-04-20 21:52 28.42812 -81.31678 99 ft 14 kts 167°
2026-04-20 21:53 28.42721 -81.31655 101 ft 13 kts 167°
2026-04-20 21:53 28.42632 -81.31633 101 ft 13 kts 167°
2026-04-20 21:53 28.42546 -81.31611 101 ft 13 kts 165°
2026-04-20 21:53 28.42508 -81.31536 101 ft 9 kts 86°
2026-04-20 21:54 28.42535 -81.31504 101 ft 6 kts
2026-04-20 21:54 28.42571 -81.31500 101 ft 0 kts
2026-04-20 21:54 28.32814 -81.32106 1803 ft 154 kts
2026-04-20 21:55 28.33853 -81.32121 1602 ft 149 kts
2026-04-20 21:55 28.34871 -81.32127 1381 ft 147 kts
2026-04-20 21:55 28.35881 -81.32136 1138 ft 143 kts
2026-04-20 21:55 28.36875 -81.32142 955 ft 145 kts
2026-04-20 21:56 28.37891 -81.32154 803 ft 142 kts
2026-04-20 21:56 28.38868 -81.32168 634 ft 140 kts
2026-04-20 21:56 28.39830 -81.32173 405 ft 136 kts
2026-04-20 21:56 28.40761 -81.32182 264 ft 138 kts
2026-04-20 21:57 28.41707 -81.32191 125 ft 132 kts
2026-04-20 21:57 28.42550 -81.32204 109 ft 105 kts 359°
2026-04-20 21:57 28.42897 -81.32208 104 ft 18 kts
2026-04-20 21:57 28.43010 -81.32163 101 ft 17 kts 37°
2026-04-20 21:58 28.43060 -81.32049 100 ft 16 kts 85°
2026-04-20 21:58 28.43048 -81.31924 101 ft 16 kts 117°